Regional Weather Roundup
Issued by NWS

Home | Current Version | Previous Version | Text Only | Print | Product List | Glossary On
Versions: 1 2 3 4 5 6 7 8 9 10 11 12 13 14 15 16 17 18 19 20 21 22 23 24 25 26 27 28 29 30 31 32 33 34 35 36 37 38
000
ASUS45 KREV 272010
RWRNV
NEVADA REGIONAL WEATHER ROUNDUP
NATIONAL WEATHER SERVICE RENO NV
1200 PM PST SAT DEC 27 2014

NOTE: "FAIR" INDICATES FEW OR NO CLOUDS BELOW 12,000 FEET WITH NO
SIGNIFICANT WEATHER AND/OR OBSTRUCTIONS TO VISIBILITY.

NVZ001-003-004-272100-
WESTERN NEVADA

CITY           SKY/WX    TMP DP  RH WIND       PRES   REMARKS
RENO           PTSUNNY   33  14  45 SE3       30.31F
CARSON CITY    FAIR      32  16  51 E5        30.30F
MINDEN         FAIR      28  14  54 W3        30.31
SLIDE MTN        N/A     36   5  27 NW5         N/A
PYRAMID LAKE     N/A     34 N/A N/A E5          N/A
FALLON         PTSUNNY   34  15  46 E5        30.32F
LOVELOCK       SUNNY     32  18  56 SW5       30.33F
HAWTHORNE      SUNNY     36  12  38 CALM      30.31F
$$

NVZ002-CAZ072-073-272100-
NORTHERN AND CENTRAL SIERRA

CITY           SKY/WX    TMP DP  RH WIND       PRES   REMARKS
S. LAKE TAHOE  SUNNY     39  12  33 NE3       30.24F
TRUCKEE        SUNNY     28  16  59 CALM      30.26F
SQUAW VLY 8000   N/A     32  -8  18 VRB21       N/A
BLUE CANYON    SUNNY     36  18  48 S6        30.29F
MAMMOTH LAKES  FAIR      37   9  30 SE6       30.23F
BRIDGEPORT     FAIR      33  10  38 CALM      30.19F
$$

NVZ030-031-036-272100-
NORTHERN NEVADA

CITY           SKY/WX    TMP DP  RH WIND       PRES   REMARKS
ELKO           SUNNY     26  13  57 SW7       30.28F
WINNEMUCCA     SUNNY     33  20  58 S7        30.30F
WENDOVER       PTSUNNY   30  12  47 E3        30.30F
$$

NVZ035-037-272100-
CENTRAL NEVADA

CITY           SKY/WX    TMP DP  RH WIND       PRES   REMARKS
ELY            MOSUNNY   23   8  52 S5        30.24F
EUREKA           N/A     24  13  62 CALM      30.27F
$$

NVZ013-014-272100-
SOUTH CENTRAL NEVADA

CITY           SKY/WX    TMP DP  RH WIND       PRES   REMARKS
TONOPAH        SUNNY     30   7  37 SW3       30.29F
$$

NVZ017-020-022-272100-
SOUTHERN NEVADA

CITY           SKY/WX    TMP DP  RH WIND       PRES   REMARKS
LAS VEGAS      MOSUNNY   47   7  19 VRB6      30.34F
N. LAS VEGAS   SUNNY     46   7  20 N6        30.37F
NELLIS AFB     SUNNY     47   9  21 NE13      30.38F
HENDERSON      SUNNY     45   9  23 NE16      30.37F
MERCURY        SUNNY     41   6  23 E12       30.33F
$$



USA.gov is the U.S. government's official web portal to all federal, state and local government web resources and services.